Temp
16 16 17 17 18 18 18 18 18 18 19 19 18 18 18 19 18 18 18 18 18 18 18 18 18 18 18 18 18 18 18 18 18 18 18 18 18 18 17 17 17 16 17
17 16 17 18 18 18 18 18 18 18 18 18 18 18 19 18 18 18 18 17 17 18 18 18 18 18 18 18 18 18 18 18 18 18 18 17 17 17 17 17 18 17 17
17 16 17 18 18 18 18 19 19 18 18 18 18 18 18 18 18 18 17 18 17 18 18 18 17 17 17 17 17 18 18 18 18 17 17 17 17 17 17 17 18 17 17
19 18 17 18 18 19 19 19 18 19 18 18 18 18 18 18 17 18 17 18 17 18 18 17 17 17 17 18 17 17 18 18 17 17 17 17 17 17 18 18 17 17 17
20 20 18 19 18 18 18 18 18 18 18 18 18 18 18 18 18 18 17 17 17 18 17 17 17 17 17 17 17 17 18 17 17 17 17 17 17 17 17 17 17 17 16
21 20 19 18 18 18 18 18 18 18 18 18 18 18 18 18 17 18 17 17 17 17 17 17 17 17 17 17 17 17 17 17 17 17 17 17 17 17 17 17 17 17 17
22 18 18 18 18 18 18 18 18 18 18 18 18 18 18 18 17 17 17 17 18 17 17 17 17 17 18 17 18 17 17 17 17 17 17 17 17 17 17 17 17 17 17
22 19 18 18 18 18 18 18 18 18 18 18 18 17 17 17 18 18 17 18 18 17 17 17 17 17 17 18 18 18 18 17 18 17 16 16 17 17 17 17 17 17 17
22 20 18 17 18 18 18 18 18 18 18 17 18 18 18 18 18 18 18 18 17 17 17 17 17 17 18 18 18 18 18 18 19 18 18 16 17 17 17 17 17 17 17
22 20 19 18 17 17 17 18 18 18 18 18 18 18 18 18 18 18 18 18 17 18 18 18 18 18 18 18 18 18 19 19 19 18 17 17 17 17 17 17 17 17 17
21 21 21 20 19 18 17 17 18 18 18 18 18 19 18 18 18 17 18 18 18 18 18 18 18 18 18 19 19 19 19 20 19 19 16 17 17 17 17 17 17 17 17
22 22 22 21 19 18 19 18 17 17 17 18 18 19 18 18 18 18 18 19 19 19 19 19 18 17 17 18 19 19 20 20 19 18 18 17 17 17 17 17 16 17 17
22 22 22 20 19 19 19 18 19 19 19 18 18 18 19 18 18 18 19 18 19 18 18 19 18 18 16 19 19 19 20 20 20 18 18 17 17 17 17 17 17 17 17
23 22 22 20 19 18 19 19 20 19 21 20 19 18 18 18 19 19 19 19 18 19 20 19 19 19 19 19 19 19 20 19 20 18 18 18 17 17 17 17 17 17 17
22 22 21 20 18 19 19 20 21 21 21 20 18 18 18 19 18 18 19 18 18 19 19 19 20 19 19 20 19 18 20 19 19 19 18 18 18 17 17 17 17 17 17
22 22 21 20 19 19 19 20 20 20 20 20 20 18 18 18 18 19 19 18 19 18 19 19 19 20 20 20 20 18 19 19 19 18 18 18 18 18 18 18 17 18 17
22 21 20 19 19 18 18 19 19 19 21 20 20 19 18 18 19 18 18 19 18 19 19 20 19 19 20 20 19 19 19 19 19 19 18 18 18 18 18 18 18 18 17
22 21 20 20 19 18 18 18 19 20 20 19 19 18 18 18 19 18 19 19 19 19 18 20 19 20 20 20 19 19 20 19 19 19 19 18 18 18 18 18 18 18 17
21 20 20 20 19 18 18 18 19 20 20 20 19 19 18 18 18 18 18 19 19 19 19 20 20 20 20 21 20 20 20 20 19 19 19 19 18 18 17 18 18 17 18
21 20 20 20 19 18 18 18 19 19 20 19 20 19 20 19 18 18 18 19 19 19 19 19 20 19 20 20 22 21 20 20 20 20 20 20 18 19 18 18 18 18 18
21 20 19 19 19 18 18 19 20 20 20 20 20 19 19 19 18 19 18 19 18 19 19 19 20 20 21 20 20 21 20 20 20 21 21 21 20 20 19 18 18 18 18
21 20 19 19 19 18 18 19 20 21 21 21 21 19 19 19 18 19 19 19 18 19 18 18 19 20 21 20 20 22 21 21 21 21 21 21 20 20 20 18 18 18 17
22 20 19 18 18 18 19 19 19 20 21 20 21 20 19 19 19 19 20 19 19 19 19 18 19 20 20 20 20 20 20 20 21 21 20 21 20 20 20 19 19 18 17
22 21 20 18 18 18 19 19 19 20 21 21 21 21 20 19 19 19 18 19 19 19 18 19 19 20 20 21 20 21 20 20 20 21 22 21 20 20 20 20 20 19 18
23 21 20 19 18 18 19 20 19 20 21 21 22 21 21 19 19 19 19 18 18 19 19 18 18 19 20 20 21 21 21 21 21 21 22 22 21 21 21 20 21 20 19
23 22 21 19 18 19 20 20 19 19 21 22 21 21 21 20 19 19 19 18 18 19 19 18 18 18 20 20 21 21 21 21 21 23 23 23 23 22 22 21 21 20 20
Height
1543 1548 1549 1552 1553 1555 1556 1558 1559 1561 1561 1563 1564 1565 1565 1565 1566 1566 1567 1567 1566 1566 1566 1567 1567 1567 1568 1569 1570 1570 1571 1572 1574 1574 1574 1574 1575 1575 1576 1577 1579 1577 1576
1544 1549 1550 1553 1555 1556 1558 1560 1561 1563 1564 1565 1566 1567 1567 1568 1568 1569 1569 1569 1569 1569 1569 1569 1569 1569 1569 1570 1571 1572 1573 1575 1576 1576 1576 1576 1577 1578 1578 1579 1579 1578 1578
1547 1550 1552 1554 1556 1558 1560 1562 1563 1564 1566 1567 1568 1568 1570 1570 1570 1571 1571 1571 1572 1571 1571 1571 1571 1571 1572 1572 1573 1574 1575 1576 1578 1576 1578 1580 1579 1580 1580 1581 1581 1581 1581
1549 1554 1556 1556 1559 1560 1562 1563 1564 1566 1567 1568 1569 1570 1571 1572 1573 1573 1573 1574 1574 1574 1574 1573 1574 1574 1574 1574 1575 1575 1577 1579 1579 1580 1582 1583 1584 1582 1583 1584 1584 1584 1584
1552 1556 1554 1556 1559 1561 1563 1565 1566 1567 1569 1570 1571 1572 1573 1574 1575 1575 1576 1576 1576 1576 1576 1576 1576 1576 1577 1576 1576 1578 1579 1581 1581 1582 1584 1585 1586 1584 1586 1586 1586 1587 1588
1554 1556 1556 1559 1560 1562 1564 1567 1568 1569 1571 1572 1573 1573 1575 1575 1577 1577 1577 1578 1578 1578 1578 1578 1579 1578 1578 1579 1579 1580 1582 1583 1585 1584 1587 1587 1587 1588 1588 1589 1590 1590 1590
1553 1557 1558 1561 1562 1565 1566 1568 1570 1572 1573 1574 1575 1576 1577 1578 1579 1579 1579 1580 1580 1580 1581 1581 1581 1581 1581 1581 1581 1583 1584 1586 1588 1589 1589 1590 1590 1590 1591 1591 1591 1592 1592
1554 1559 1560 1562 1565 1567 1568 1570 1572 1574 1575 1576 1578 1579 1580 1581 1581 1581 1582 1582 1582 1582 1583 1583 1583 1583 1583 1584 1584 1585 1587 1587 1590 1592 1591 1593 1591 1592 1592 1593 1593 1594 1595
1557 1561 1564 1566 1566 1569 1570 1572 1574 1576 1577 1578 1580 1581 1583 1583 1584 1584 1584 1584 1584 1585 1585 1584 1584 1585 1585 1585 1587 1588 1589 1590 1593 1594 1596 1594 1593 1594 1594 1595 1596 1596 1597
1558 1563 1566 1569 1571 1573 1573 1574 1576 1578 1579 1581 1583 1584 1585 1586 1587 1587 1588 1587 1587 1588 1587 1586 1585 1585 1586 1587 1588 1590 1592 1593 1596 1596 1596 1595 1596 1597 1597 1597 1598 1599 1599
1560 1564 1567 1571 1573 1575 1577 1576 1578 1580 1582 1584 1586 1588 1588 1590 1591 1591 1591 1590 1590 1590 1589 1587 1586 1587 1589 1588 1589 1591 1592 1596 1596 1598 1598 1597 1598 1598 1599 1599 1600 1600 1601
1560 1564 1567 1571 1574 1576 1579 1579 1582 1583 1586 1589 1590 1589 1590 1593 1594 1595 1593 1593 1593 1593 1592 1589 1590 1596 1590 1593 1592 1593 1596 1599 1598 1599 1598 1599 1599 1600 1601 1601 1601 1602 1602
1560 1564 1567 1571 1575 1576 1579 1582 1585 1586 1589 1589 1591 1589 1593 1595 1594 1596 1595 1595 1595 1594 1594 1593 1592 1596 1592 1593 1594 1597 1599 1600 1600 1600 1600 1600 1601 1602 1602 1602 1603 1603 1603
1560 1565 1568 1572 1575 1575 1580 1582 1585 1584 1590 1592 1593 1593 1593 1595 1597 1596 1596 1598 1595 1596 1597 1594 1595 1595 1596 1594 1597 1598 1600 1601 1601 1601 1602 1602 1603 1603 1604 1604 1604 1604 1604
1560 1565 1568 1573 1573 1577 1579 1583 1586 1588 1590 1592 1593 1594 1594 1595 1596 1597 1598 1596 1596 1598 1598 1598 1598 1597 1598 1599 1599 1601 1602 1603 1602 1603 1603 1604 1604 1604 1605 1604 1605 1605 1605
1560 1565 1568 1573 1576 1578 1580 1584 1586 1589 1590 1593 1594 1595 1595 1595 1597 1598 1598 1597 1598 1596 1598 1599 1599 1600 1601 1602 1603 1602 1604 1605 1605 1604 1605 1605 1606 1606 1606 1605 1605 1606 1606
1560 1565 1568 1572 1576 1579 1580 1584 1586 1588 1591 1593 1595 1594 1596 1596 1597 1598 1598 1599 1596 1599 1600 1600 1601 1601 1602 1602 1603 1605 1606 1606 1607 1608 1607 1607 1607 1607 1607 1606 1606 1606 1606
1559 1564 1568 1572 1575 1579 1581 1584 1587 1589 1591 1592 1594 1595 1596 1596 1596 1597 1599 1601 1600 1600 1599 1601 1602 1603 1603 1604 1605 1605 1607 1607 1609 1609 1610 1609 1608 1608 1607 1607 1607 1606 1606
1558 1563 1567 1571 1574 1578 1581 1584 1587 1589 1590 1592 1594 1595 1596 1596 1597 1595 1597 1599 1600 1601 1600 1603 1603 1604 1604 1605 1605 1606 1609 1609 1608 1609 1611 1611 1610 1609 1609 1608 1607 1607 1607
1557 1561 1566 1569 1573 1576 1580 1584 1587 1589 1591 1592 1594 1595 1595 1597 1598 1599 1598 1599 1600 1602 1601 1601 1604 1604 1604 1606 1606 1608 1610 1610 1611 1611 1610 1610 1610 1611 1608 1608 1608 1608 1607
1554 1559 1563 1567 1570 1574 1578 1582 1586 1588 1590 1593 1594 1595 1596 1598 1598 1598 1599 1599 1600 1602 1602 1603 1605 1605 1607 1607 1609 1611 1611 1611 1611 1611 1611 1611 1610 1612 1612 1611 1609 1608 1607
1550 1555 1560 1564 1567 1571 1576 1580 1585 1587 1590 1592 1594 1594 1597 1598 1598 1600 1599 1600 1599 1602 1603 1604 1604 1606 1607 1608 1608 1610 1610 1612 1611 1610 1611 1611 1611 1612 1612 1611 1610 1609 1610
1546 1551 1556 1560 1563 1567 1574 1578 1582 1586 1588 1591 1592 1594 1596 1598 1599 1601 1599 1601 1601 1602 1603 1604 1605 1605 1608 1609 1609 1610 1611 1612 1610 1610 1610 1611 1611 1612 1612 1611 1611 1610 1609
1541 1548 1552 1556 1560 1564 1569 1575 1579 1583 1585 1588 1590 1592 1594 1596 1599 1600 1599 1600 1601 1603 1603 1605 1606 1607 1607 1609 1611 1612 1611 1612 1611 1610 1611 1611 1611 1611 1611 1611 1611 1610 1609
1536 1542 1548 1552 1556 1561 1564 1571 1575 1580 1584 1586 1588 1589 1593 1594 1597 1599 1599 1600 1601 1602 1604 1604 1606 1607 1609 1609 1609 1612 1612 1612 1612 1611 1609 1610 1610 1611 1611 1611 1611 1611 1609
1531 1536 1542 1545 1549 1554 1559 1566 1571 1575 1580 1583 1586 1588 1592 1593 1595 1597 1598 1599 1600 1602 1602 1604 1605 1606 1608 1609 1609 1610 1611 1611 1612 1611 1610 1610 1610 1611 1611 1611 1610 1610 1610
Wind_Speed
23 21 21 17 17 16 15 15 12 10 9 12 10 8 7 8 10 9 9 10 11 10 8 6 5 4 5 5 6 7 9 10 11 12 11 13 13 16 19 19 16 13 15
26 21 19 19 16 15 14 12 12 11 11 12 9 6 7 9 8 8 9 9 9 10 9 9 9 9 9 8 7 7 8 10 11 11 12 13 13 13 14 15 11 14 15
22 21 20 18 16 15 14 12 11 10 10 9 7 7 8 8 9 8 8 9 9 9 10 12 13 13 12 11 10 10 10 11 12 13 14 14 11 12 12 12 12 15 15
23 20 18 18 16 14 12 11 10 10 9 9 9 9 8 9 9 8 7 8 8 10 12 12 14 13 13 11 10 11 12 15 14 16 9 13 9 13 12 13 15 15 14
23 20 19 19 15 14 13 12 10 10 11 10 10 9 8 9 8 7 7 7 9 11 12 12 12 12 12 12 11 14 16 16 12 14 11 15 10 13 14 14 15 15 14
23 19 20 18 17 15 14 12 11 11 11 12 11 10 10 9 9 9 8 10 10 12 12 13 13 12 11 11 12 15 19 16 15 12 10 13 11 13 12 12 11 13 13
24 18 19 17 16 15 14 13 12 12 12 12 12 12 11 12 10 10 11 12 12 13 12 13 12 12 13 12 12 16 18 18 14 12 11 12 12 12 11 12 13 13 14
21 20 18 17 15 14 14 13 12 12 13 13 13 13 13 11 11 11 13 13 13 12 12 12 12 13 13 14 15 16 20 15 11 13 13 9 12 11 13 13 13 13 13
20 19 17 15 16 14 14 13 13 14 15 15 14 14 11 11 12 14 14 12 13 13 13 12 13 12 13 15 15 17 18 19 15 11 11 9 12 11 12 12 12 12 12
21 17 16 15 13 12 12 13 13 14 15 15 14 12 11 15 16 15 13 14 15 14 14 13 13 12 14 15 17 21 21 18 10 14 9 9 11 11 10 11 11 12 10
21 19 18 16 13 15 11 13 14 15 14 14 14 16 15 9 11 11 10 14 14 14 13 13 13 13 16 21 22 19 15 8 12 11 8 11 11 10 10 10 10 9 9
22 20 19 17 15 16 12 12 11 12 11 10 11 11 10 8 11 9 11 13 13 14 12 11 9 9 14 10 16 17 14 9 9 9 8 9 10 9 8 8 8 8 8
23 21 20 18 16 18 16 12 13 12 11 8 8 6 11 7 8 10 5 6 5 9 9 7 6 10 8 16 15 10 9 8 9 9 8 9 9 9 8 7 7 7 6
23 21 20 18 17 12 13 14 13 12 11 8 8 8 10 9 6 4 8 4 1 9 4 2 5 7 6 9 13 12 8 7 8 7 7 6 7 8 6 7 7 6 6
24 23 19 19 15 19 16 12 12 11 10 10 8 8 3 7 7 7 4 4 5 5 3 3 5 6 5 5 9 9 7 8 3 4 5 5 5 5 6 5 4 5 5
24 23 21 19 17 14 15 13 12 13 10 8 8 7 7 8 6 3 3 2 5 5 7 4 5 5 5 4 5 9 9 7 9 6 5 7 6 4 3 3 3 4 3
25 23 22 20 18 16 10 14 15 12 10 10 9 8 6 4 9 7 4 3 2 1 8 6 8 5 6 6 8 5 7 8 7 7 5 5 8 9 7 2 1 2 2
25 24 22 20 19 18 13 14 10 10 12 11 8 7 8 6 5 8 4 4 5 6 6 3 8 6 3 8 9 8 7 6 4 6 4 6 6 5 8 6 2 1 1
25 25 23 21 20 19 16 14 12 12 12 9 10 7 8 4 3 5 10 7 5 5 11 8 4 9 6 5 7 9 5 4 4 5 5 3 4 4 1 5 4 3 3
26 25 24 23 21 21 17 15 13 12 11 11 9 9 6 5 5 4 3 3 9 5 4 11 5 7 9 3 7 7 6 5 3 3 4 4 4 3 1 5 4 6 8
28 26 26 25 24 22 18 18 16 13 12 11 10 7 7 6 6 6 5 5 4 4 4 5 5 6 4 4 8 5 3 3 3 2 2 3 3 3 1 2 2 5 6
31 29 29 28 26 25 20 19 17 15 12 10 9 9 8 7 6 5 5 3 6 6 7 6 7 7 5 5 5 5 4 2 4 2 1 2 3 1 0 2 1 5 1
33 32 31 31 30 28 22 20 18 16 13 12 13 8 10 9 7 6 7 5 6 9 4 6 7 5 4 4 2 4 2 4 4 1 1 2 1 1 1 2 2 3 2
35 32 32 33 32 29 29 22 22 19 18 15 13 11 11 11 9 7 6 6 7 5 5 6 6 6 4 5 3 2 4 3 2 1 2 2 2 1 3 2 3 3 4
36 34 33 34 34 30 33 26 25 22 18 15 13 13 12 10 12 10 9 7 5 6 7 8 5 10 6 6 7 5 3 2 0 3 5 4 3 2 2 1 3 3 5
37 36 35 37 37 37 35 34 29 27 22 18 17 15 13 12 12 13 10 9 8 7 7 7 7 9 10 8 5 6 6 5 5 2 1 3 3 0 1 3 4 4 5
Wind_Direction
160 163 155 152 149 148 143 143 136 131 128 144 124 111 99 95 92 87 83 81 78 74 70 79 88 100 125 124 109 104 105 102 100 100 97 93 96 98 95 85 71 87 87
150 162 157 152 152 150 145 146 145 138 130 137 137 122 101 104 100 94 92 87 77 68 70 83 81 86 100 99 116 124 114 108 105 96 94 97 98 97 103 108 114 90 91
153 151 148 147 147 142 140 143 136 139 140 144 139 121 119 114 105 98 92 82 81 72 79 89 85 79 93 99 101 116 118 113 109 99 85 89 100 103 103 100 95 93 95
132 142 146 145 142 140 140 138 137 142 139 140 140 133 132 117 110 105 92 89 86 82 87 90 93 92 85 93 106 109 112 114 103 95 106 96 97 99 97 95 94 87 89
145 148 161 145 143 140 138 134 137 137 136 133 127 129 125 117 113 102 91 86 88 90 93 95 92 91 91 86 103 107 110 110 96 97 100 112 98 99 97 94 86 92 99
144 153 150 145 142 142 144 140 140 139 132 126 128 126 122 113 100 92 89 93 91 96 92 94 91 88 87 92 101 110 109 104 106 111 107 118 121 98 95 97 100 97 87
146 144 146 146 143 142 139 136 135 128 127 124 125 119 116 108 96 85 94 97 95 96 90 93 96 90 86 89 95 115 103 84 95 93 91 92 95 94 99 98 95 91 94
145 143 146 148 145 144 142 139 134 129 124 128 123 117 114 108 101 97 105 97 96 94 89 87 95 92 90 89 94 106 109 108 72 80 91 104 97 95 99 100 98 94 96
147 150 144 145 147 144 140 139 135 130 130 128 122 119 118 104 99 100 105 97 99 100 94 93 104 103 94 91 92 102 100 91 79 96 92 88 100 100 103 102 98 97 92
149 149 147 151 144 138 143 143 139 135 128 125 123 118 101 99 94 89 83 95 97 99 96 95 108 103 104 96 94 91 88 88 111 88 91 103 95 98 99 100 95 99 97
150 153 153 153 153 150 160 144 140 136 131 129 121 94 97 93 96 95 111 94 96 97 95 100 113 116 104 93 89 86 77 84 106 92 94 96 95 97 95 94 94 94 92
158 157 157 158 163 144 151 146 140 130 130 129 138 101 108 136 127 122 100 91 96 92 80 91 98 105 124 123 80 81 82 98 83 98 98 105 95 91 94 97 99 92 94
162 160 161 162 158 163 167 146 147 149 138 171 136 162 135 144 145 122 88 101 83 99 105 40 354 67 156 90 78 95 98 105 114 96 94 103 95 97 94 97 98 95 94
165 164 163 168 172 165 150 143 151 138 157 160 163 135 158 146 138 195 115 112 11 70 126 195 55 61 60 74 79 82 81 113 102 105 80 103 109 106 98 93 89 93 96
169 169 168 171 170 166 163 161 159 157 156 158 168 157 207 135 137 149 170 103 107 101 90 105 81 70 87 78 100 91 88 99 53 48 17 74 98 112 110 113 96 93 100
173 173 173 172 176 165 162 159 161 163 156 156 161 189 169 157 175 160 148 213 140 84 71 83 114 88 95 110 95 120 91 92 92 54 62 54 50 58 92 115 107 104 111
176 176 177 173 174 176 165 169 169 169 161 171 168 187 161 158 180 143 173 122 93 125 121 120 119 90 99 130 109 119 101 95 93 100 46 32 28 34 28 32 89 112 126
179 180 180 176 178 178 172 174 178 178 165 172 186 174 159 198 155 136 126 133 124 124 125 124 147 99 104 137 132 131 93 98 96 105 106 62 16 5 4 3 305 235 246
183 185 183 178 179 179 181 178 178 185 172 182 164 178 165 173 167 103 150 156 146 158 159 121 112 107 107 121 107 102 114 90 127 84 69 89 95 23 124 348 20 26 347
186 187 186 181 184 182 185 178 177 182 185 175 176 177 212 171 188 164 138 183 142 192 219 141 147 135 115 133 116 111 121 114 108 84 65 135 65 78 286 329 338 8 359
189 190 189 184 191 186 185 179 180 185 185 182 180 188 187 179 184 166 93 133 146 178 191 105 150 164 146 117 125 120 119 127 121 155 113 117 58 119 114 300 318 323 327
193 194 192 189 195 190 189 184 186 185 190 193 195 201 188 186 184 173 161 228 209 146 180 174 196 166 147 184 206 176 143 153 179 156 171 202 196 89 238 101 286 183 178
196 196 197 193 196 197 188 190 191 193 194 197 199 203 195 194 189 177 189 172 193 172 174 176 168 197 149 190 288 67 130 251 164 162 177 186 17 202 223 324 162 254 220
198 199 201 200 198 201 183 195 196 189 193 198 199 202 199 191 194 198 193 187 165 168 179 186 185 212 135 168 176 196 183 46 27 66 123 179 210 178 219 216 248 255 244
198 201 201 205 202 199 200 190 203 194 199 199 198 196 190 205 193 200 223 193 207 171 191 179 179 171 200 178 185 159 180 140 257 307 262 142 115 197 239 292 223 236 271
200 201 202 206 207 202 209 196 201 205 196 204 202 203 205 206 206 202 219 203 199 185 228 193 186 200 172 203 183 194 186 187 213 238 36 110 109 165 214 243 252 243 246